Content
SEND FEEDBACK

Daily
Averages
Monthly
Summary
United States of America

ACHANG BAY, GUAM


Home > North America > United States > Guam
Elevation: 30 feet     Latitude: 13 16N     Longitude: 144 45E

WEATHER
 
SELECT A DAY
Number of Records: 341,716;   Date Range: 1/1/95 - 7/22/14
 
SHARE

PRINT THIS DATA

[ ← Previous Day ]
WEATHER ALMANAC - APRIL 25, 2013
[ Next Day → ]
[ °C ]   °F
Weather ElementAverageHighLow
Temperature79.9 °F84.2 °F (1:17 pm)76.6 °F (12:55 am)
Dewpoint75 °F77 °F (12:50 pm)73.4 °F (12:38 am)
Humidity85.5 %95 % (5:55 am)74 % (1:45 pm)
Barometer29.85 in29.91 in (8:40 am)29.81 in (3:25 pm)
Wind Speed11.5 mph15 mph (12:21 am)
Wind Gust21.9 mph (3:49 pm)
Weather ElementAverage
Visibility9.7 mi
Wind DirectionENE (75.8 °)

Weather ElementTotal
Precipitation0.10 in
Cooling Degree Days15.4 (Base 65)
Growing Degree Days30.4 (Base 50)
Averaged from 138 records on April 25, 2013
WEATHER CONDITIONS BREAKOUT
WIND DIRECTION BREAKOUT
WEATHER BY HOUR - APRIL 25, 2013
[ °C ]   °F
Local TimeTemperatureDewpointHumidityBarometerVisibilityWind DirectionWind SpeedGust SpeedPrecipitationEventsConditions
12:04 AM78.8 °F75.2 °F89 %29.87 in10.0 miENE (60°)12.7 mphMostly Cloudy
12:08 AM78.8 °F75.2 °F89 %29.87 in10.0 miENE (60°)12.7 mphScattered Clouds
12:21 AM78.8 °F75.2 °F89 %29.86 in10.0 miENE (60°)15.0 mphMostly Cloudy
12:25 AM78.8 °F75.2 °F89 %29.86 in10.0 miENE (60°)13.8 mphMostly Cloudy
12:38 AM78.8 °F73.4 °F83 %29.86 in10.0 miENE (60°)12.7 mphMostly Cloudy
12:49 AM77.0 °F73.4 °F89 %29.86 in10.0 miESE (120°)11.5 mphOvercast
12:55 AM76.6 °F73.8 °F91 %29.86 in10.0 miSE (130°)8.1 mphOvercast
12:57 AM77.0 °F73.4 °F89 %29.86 in8.0 miESE (120°)6.9 mphRainRain
1:03 AM77.0 °F75.2 °F94 %29.86 in8.0 miEast (100°)9.2 mphRainLight Rain
1:05 AM77.0 °F75.2 °F94 %29.86 in8.0 miEast (100°)6.9 mphRainLight Rain
1:07 AM77.0 °F75.2 °F94 %29.86 in10.0 miESE (110°)8.1 mphOvercast
1:25 AM77.0 °F75.2 °F94 %29.86 in8.0 miEast (100°)10.4 mphRainLight Rain
1:33 AM77.0 °F75.2 °F94 %29.85 in8.0 miEast (100°)8.1 mphLight Drizzle
1:35 AM77.0 °F73.4 °F89 %29.85 in9.0 miEast (100°)10.4 mphMostly Cloudy
1:49 AM77.0 °F75.2 °F94 %29.85 in10.0 miEast (90°)9.2 mphMostly Cloudy
1:50 AM77.0 °F75.2 °F94 %29.85 in10.0 miEast (80°)9.2 mphMostly Cloudy
1:55 AM77.4 °F74.8 °F92 %29.85 in10.0 miEast (90°)11.5 mph0.01 inMostly Cloudy
2:11 AM77.0 °F73.4 °F89 %29.84 in10.0 miEast (80°)13.8 mphScattered Clouds
2:13 AM77.0 °F73.4 °F89 %29.84 in10.0 miEast (80°)12.7 mphMostly Cloudy
2:17 AM77.0 °F73.4 °F89 %29.84 in10.0 miEast (80°)11.5 mphMostly Cloudy
2:20 AM77.0 °F73.4 °F89 %29.84 in10.0 miEast (80°)13.8 mphMostly Cloudy
2:24 AM77.0 °F73.4 °F89 %29.84 in10.0 miEast (90°)10.4 mphMostly Cloudy
2:37 AM78.8 °F73.4 °F83 %29.84 in10.0 miEast (100°)11.5 mphMostly Cloudy
2:42 AM77.0 °F75.2 °F94 %29.84 in10.0 miENE (70°)12.7 mphMostly Cloudy
2:44 AM77.0 °F75.2 °F94 %29.84 in10.0 miEast (80°)10.4 mphMostly Cloudy
2:49 AM78.8 °F75.2 °F89 %29.84 in10.0 miEast (80°)10.4 mphMostly Cloudy
2:51 AM78.8 °F75.2 °F89 %29.84 in10.0 miEast (80°)9.2 mphMostly Cloudy
2:55 AM77.9 °F74.5 °F89 %29.84 in10.0 miEast (80°)12.7 mphMostly Cloudy
2:56 AM78.8 °F75.2 °F89 %29.84 in10.0 miEast (80°)13.8 mphMostly Cloudy
2:58 AM78.8 °F73.4 °F83 %29.84 in10.0 miEast (80°)11.5 mphMostly Cloudy
3:26 AM77.0 °F75.2 °F94 %29.83 in10.0 miEast (90°)11.5 mphScattered Clouds
3:55 AM77.5 °F74.3 °F90 %29.84 in10.0 miEast (90°)12.7 mphScattered Clouds
4:06 AM78.8 °F73.4 °F83 %29.84 in10.0 miEast (80°)11.5 mphMostly Cloudy
4:18 AM78.8 °F73.4 °F83 %29.84 in10.0 miEast (90°)10.4 mphMostly Cloudy
4:55 AM77.7 °F73.4 °F86 %29.85 in10.0 miEast (90°)8.1 mphClear
5:10 AM77.0 °F73.4 °F89 %29.85 in4.0 miEast (90°)15.0 mphRainLight Rain
5:23 AM77.0 °F73.4 °F89 %29.86 in9.0 miEast (90°)8.1 mphRainLight Rain
5:25 AM77.0 °F73.4 °F89 %29.86 in10.0 miEast (80°)8.1 mphRainLight Rain
5:26 AM77.0 °F75.2 °F94 %29.86 in10.0 miEast (90°)8.1 mphMostly Cloudy
5:32 AM77.0 °F75.2 °F94 %29.86 in10.0 miEast (90°)8.1 mphMostly Cloudy
5:43 AM77.0 °F75.2 °F94 %29.86 in10.0 miEast (90°)8.1 mphMostly Cloudy
5:45 AM77.0 °F75.2 °F94 %29.86 in10.0 miEast (100°)6.9 mphMostly Cloudy
5:55 AM77.0 °F75.6 °F95 %29.87 in10.0 miENE (70°)5.8 mph0.03 inOvercast
6:06 AM77.0 °F75.2 °F94 %29.87 in10.0 miENE (70°)9.2 mphMostly Cloudy
6:07 AM77.0 °F75.2 °F94 %29.87 in10.0 miENE (70°)9.2 mphScattered Clouds
6:19 AM77.0 °F75.2 °F94 %29.87 in10.0 miENE (70°)10.4 mphPartly Cloudy
6:54 AM77.0 °F75.2 °F94 %29.88 in9.0 miENE (70°)9.2 mphRainLight Rain
6:55 AM77.7 °F75.2 °F92 %29.88 in8.0 miENE (70°)8.1 mph0.01 inRainRain
7:05 AM78.8 °F75.2 °F89 %29.88 in4.0 miEast (80°)10.4 mphRainLight Rain
7:09 AM77.0 °F75.2 °F94 %29.88 in9.0 miENE (60°)9.2 mphLight Drizzle
7:10 AM77.0 °F75.2 °F94 %29.88 in9.0 miENE (60°)10.4 mphLight Drizzle
7:12 AM77.0 °F75.2 °F94 %29.89 in10.0 miENE (60°)9.2 mphMostly Cloudy
7:25 AM78.8 °F75.2 °F89 %29.89 in10.0 miENE (70°)10.4 mphMostly Cloudy
7:55 AM79.7 °F75.9 °F88 %29.90 in10.0 miENE (70°)15.0 mph0.02 inScattered Clouds
8:38 AM80.6 °F75.2 °F84 %29.90 in10.0 miENE (70°)12.7 mphMostly Cloudy
8:40 AM80.6 °F75.2 °F84 %29.91 in10.0 miENE (70°)13.8 mphMostly Cloudy
8:44 AM80.6 °F75.2 °F84 %29.91 in10.0 miENE (70°)13.8 mphMostly Cloudy
8:45 AM80.6 °F75.2 °F84 %29.91 in10.0 miENE (70°)13.8 mphMostly Cloudy
8:55 AM80.8 °F75.9 °F85 %29.91 in10.0 miEast (80°)15.0 mphMostly Cloudy
9:05 AM82.4 °F75.2 °F79 %29.91 in10.0 miENE (70°)13.8 mphMostly Cloudy
9:25 AM82.4 °F75.2 °F79 %29.91 in10.0 miEast (90°)11.5 mphScattered Clouds
9:29 AM82.4 °F75.2 °F79 %29.91 in10.0 miENE (70°)11.5 mphMostly Cloudy
9:48 AM82.4 °F75.2 °F79 %29.91 in10.0 miEast (100°)10.4 mphScattered Clouds
9:53 AM82.4 °F75.2 °F79 %29.91 in10.0 miEast (90°)11.5 mphMostly Cloudy
9:55 AM82.6 °F75.4 °F79 %29.91 in10.0 miEast (80°)12.7 mphMostly Cloudy
10:39 AM82.4 °F75.2 °F79 %29.90 in10.0 miEast (80°)11.5 mphScattered Clouds
10:43 AM82.4 °F75.2 °F79 %29.90 in10.0 miENE (70°)12.7 mphMostly Cloudy
10:50 AM82.4 °F75.2 °F79 %29.89 in10.0 miENE (70°)13.8 mphMostly Cloudy
10:55 AM82.6 °F76.3 °F81 %29.89 in10.0 miENE (70°)11.5 mphMostly Cloudy
12:50 PM82.4 °F77.0 °F84 %29.86 in10.0 miENE (70°)13.8 mphMostly Cloudy
12:55 PM81.9 °F76.6 °F84 %29.85 in10.0 miENE (70°)13.8 mph0.02 inMostly Cloudy
12:58 PM82.4 °F77.0 °F84 %29.85 in10.0 miENE (70°)11.5 mphMostly Cloudy
1:11 PM82.4 °F75.2 °F79 %29.85 in10.0 miEast (80°)13.8 mphMostly Cloudy
1:17 PM84.2 °F77.0 °F79 %29.85 in10.0 miEast (80°)15.0 mphScattered Clouds
1:45 PM84.2 °F75.2 °F74 %29.84 in10.0 miENE (60°)15.0 mphMostly Cloudy
1:53 PM84.2 °F75.2 °F74 %29.83 in10.0 miENE (60°)13.8 mphScattered Clouds
1:55 PM84.2 °F75.7 °F76 %29.83 in10.0 miEast (80°)12.7 mphScattered Clouds
2:20 PM84.2 °F75.2 °F74 %29.82 in10.0 miEast (80°)15.0 mphMostly Cloudy
2:55 PM83.8 °F75.9 °F77 %29.82 in10.0 miEast (80°)13.8 mphMostly Cloudy
3:05 PM84.2 °F75.2 °F74 %29.82 in10.0 miEast (80°)13.8 mphMostly Cloudy
3:08 PM84.2 °F75.2 °F74 %29.82 in10.0 miEast (80°)12.7 mphMostly Cloudy
3:11 PM84.2 °F75.2 °F74 %29.82 in10.0 miENE (70°)13.8 mphMostly Cloudy
3:13 PM84.2 °F75.2 °F74 %29.82 in10.0 miEast (80°)15.0 mphMostly Cloudy
3:16 PM82.4 °F75.2 °F79 %29.82 in10.0 miEast (80°)13.8 mphMostly Cloudy
3:17 PM84.2 °F75.2 °F74 %29.82 in10.0 miENE (70°)13.8 mphMostly Cloudy
3:20 PM84.2 °F75.2 °F74 %29.82 in10.0 miEast (80°)13.8 mphScattered Clouds
3:25 PM84.2 °F75.2 °F74 %29.81 in10.0 miENE (70°)15.0 mphMostly Cloudy
3:36 PM84.2 °F75.2 °F74 %29.81 in10.0 miENE (70°)13.8 mphScattered Clouds
3:42 PM84.2 °F75.2 °F74 %29.81 in10.0 miENE (70°)13.8 mphMostly Cloudy
3:49 PM84.2 °F75.2 °F74 %29.81 in10.0 miENE (70°)12.7 mph21.9 mphMostly Cloudy
3:55 PM83.3 °F75.7 °F78 %29.81 in10.0 miENE (70°)10.4 mph21.9 mphMostly Cloudy
3:58 PM84.2 °F75.2 °F74 %29.81 in10.0 miENE (70°)11.5 mphRainLight Rain
4:07 PM80.6 °F75.2 °F84 %29.81 in10.0 miEast (80°)12.7 mphMostly Cloudy
4:11 PM82.4 °F75.2 °F79 %29.81 in10.0 miENE (70°)12.7 mphMostly Cloudy
4:12 PM82.4 °F75.2 °F79 %29.81 in10.0 miENE (70°)12.7 mphMostly Cloudy
4:14 PM82.4 °F75.2 °F79 %29.81 in10.0 miEast (80°)12.7 mphScattered Clouds
4:15 PM82.4 °F75.2 °F79 %29.81 in10.0 miENE (70°)13.8 mphMostly Cloudy
4:26 PM82.4 °F75.2 °F79 %29.81 in10.0 miEast (80°)13.8 mphMostly Cloudy
4:28 PM82.4 °F75.2 °F79 %29.81 in10.0 miENE (70°)13.8 mphScattered Clouds
4:30 PM82.4 °F75.2 °F79 %29.81 in10.0 miEast (80°)12.7 mphMostly Cloudy
4:46 PM82.4 °F75.2 °F79 %29.81 in10.0 miENE (70°)12.7 mphScattered Clouds
4:50 PM82.4 °F75.2 °F79 %29.81 in9.0 miEast (80°)12.7 mphMostly Cloudy
4:51 PM82.4 °F75.2 °F79 %29.81 in8.0 miENE (60°)13.8 mphRainRain
4:55 PM81.3 °F76.6 °F86 %29.81 in7.0 miENE (60°)9.2 mph0.00 inRainLight Rain
5:04 PM78.8 °F75.2 °F89 %29.81 in10.0 miENE (70°)13.8 mphMostly Cloudy
5:18 PM80.6 °F75.2 °F84 %29.81 in10.0 miENE (70°)12.7 mphMostly Cloudy
5:32 PM80.6 °F75.2 °F84 %29.81 in10.0 miEast (80°)12.7 mphScattered Clouds
5:49 PM80.6 °F75.2 °F84 %29.81 in10.0 miENE (70°)12.7 mphLight Drizzle
5:55 PM80.2 °F75.6 °F86 %29.82 in10.0 miENE (70°)13.8 mph0.00 inLight Drizzle
5:58 PM80.6 °F75.2 °F84 %29.82 in10.0 miENE (70°)12.7 mphMostly Cloudy
6:01 PM80.6 °F75.2 °F84 %29.82 in10.0 miENE (70°)11.5 mphMostly Cloudy
6:02 PM80.6 °F75.2 °F84 %29.82 in10.0 miENE (70°)11.5 mphMostly Cloudy
6:03 PM80.6 °F75.2 °F84 %29.82 in10.0 miENE (70°)11.5 mphMostly Cloudy
6:04 PM80.6 °F75.2 °F84 %29.82 in10.0 miENE (60°)12.7 mphMostly Cloudy
6:13 PM78.8 °F75.2 °F89 %29.82 in10.0 miENE (70°)11.5 mphScattered Clouds
6:42 PM78.8 °F75.2 °F89 %29.83 in10.0 miENE (70°)11.5 mphMostly Cloudy
6:55 PM79.0 °F74.5 °F86 %29.83 in10.0 miENE (70°)11.5 mph0.00 inMostly Cloudy
6:57 PM78.8 °F75.2 °F89 %29.84 in10.0 miENE (70°)9.2 mphMostly Cloudy
6:59 PM78.8 °F75.2 °F89 %29.83 in10.0 miENE (70°)11.5 mphMostly Cloudy
7:00 PM78.8 °F75.2 °F89 %29.83 in10.0 miEast (80°)11.5 mphScattered Clouds
7:55 PM78.6 °F74.3 °F87 %29.85 in10.0 miENE (60°)9.2 mphScattered Clouds
8:55 PM78.6 °F74.3 °F87 %29.86 in10.0 miENE (70°)10.4 mphScattered Clouds
9:13 PM78.8 °F75.2 °F89 %29.86 in10.0 miENE (60°)8.1 mphMostly Cloudy
9:16 PM78.8 °F75.2 °F89 %29.86 in10.0 miENE (60°)9.2 mphScattered Clouds
9:24 PM78.8 °F75.2 °F89 %29.86 in10.0 miENE (60°)9.2 mphRainLight Rain
9:25 PM78.8 °F75.2 °F89 %29.86 in10.0 miENE (60°)10.4 mphRainLight Rain
9:31 PM78.8 °F75.2 °F89 %29.86 in10.0 miENE (60°)8.1 mphRainLight Rain
9:33 PM78.8 °F75.2 °F89 %29.86 in10.0 miENE (60°)9.2 mphScattered Clouds
9:55 PM78.3 °F74.3 °F88 %29.86 in10.0 miENE (70°)11.5 mph0.00 inScattered Clouds
10:55 PM78.4 °F74.1 °F87 %29.87 in10.0 miENE (70°)11.5 mphScattered Clouds
11:09 PM78.8 °F75.2 °F89 %29.87 in10.0 miENE (60°)10.4 mphMostly Cloudy
11:25 PM78.8 °F75.2 °F89 %29.86 in10.0 miENE (70°)10.4 mphScattered Clouds
11:27 PM78.8 °F75.2 °F89 %29.86 in10.0 miENE (60°)8.1 mphMostly Cloudy
11:36 PM78.8 °F75.2 °F89 %29.87 in9.0 miENE (60°)11.5 mphRainRain
11:46 PM78.8 °F75.2 °F89 %29.86 in10.0 miENE (70°)8.1 mphMostly Cloudy
11:55 PM77.9 °F75.2 °F91 %29.86 in10.0 miENE (60°)8.1 mph0.01 inMostly Cloudy
11:56 PM78.8 °F75.2 °F89 %29.86 in10.0 miENE (60°)9.2 mphMostly Cloudy
11:58 PM78.8 °F75.2 °F89 %29.86 in10.0 miENE (60°)10.4 mphMostly Cloudy
Hourly data recorded from PGUA, located miles away from Achang Bay, Guam







STORIES FROM OUR PARTNERS